FW2611 Weather Reports


Display with metric or nautical units.
time (UTC)temp
F
wind
direction
speed
MPH
gust
MPH
rain 1hr
in
rain 24hr
in
rain mn
in
humidity
%
barometer
mb
20260904010024 81 267 2.0 6.0 0.00 0.82 0.82 76 1014.8
20260904004530 81 248 2.0 6.0 0.00 0.82 0.82 77 1014.9
20260904003034 82 274 2.0 7.0 0.00 0.82 0.82 75 1014.5
20260904001532 82 265 2.0 8.0 0.00 0.82 0.82 75 1014.4
20260904000017 82 287 3.0 10.0 0.00 0.82 0.82 74 1014.2
20260903234524 83 283 4.0 10.0 0.00 0.82 0.82 74 1014.1
20260903233036 84 238 2.0 8.0 0.00 0.82 0.82 74 1014.0
20260903231541 84 258 5.0 11.0 0.00 0.82 0.82 72 1013.8
20260903230035 86 253 5.0 12.0 0.00 0.82 0.82 70 1013.5
20260903224515 86 239 5.0 12.0 0.00 0.82 0.82 70 1013.5
20260903223027 87 242 5.0 11.0 0.00 0.82 0.82 69 1013.5
20260903221532 87 252 6.0 12.0 0.00 0.82 0.82 69 1013.6
20260903220038 87 241 5.0 14.0 0.00 0.82 0.82 68 1013.4
20260903214534 88 245 8.0 15.0 0.00 0.82 0.82 68 1013.7
20260903213021 88 249 5.0 16.0 0.00 0.82 0.82 68 1013.7
20260903211541 88 254 7.0 13.0 0.00 0.82 0.82 67 1013.7
20260903210008 89 256 10.0 17.0 0.00 0.82 0.82 64 1013.8
20260903204511 89 269 7.0 17.0 0.00 0.82 0.82 64 1013.8
20260903203002 89 218 7.0 15.0 0.00 0.82 0.82 64 1013.8
20260903201504 89 246 10.0 17.0 0.00 0.82 0.82 63 1014.0
20260903200009 89 255 11.0 21.0 0.00 0.82 0.82 62 1014.0
20260903194508 88 279 8.0 17.0 0.00 0.82 0.82 64 1014.4
20260903193017 88 263 4.0 15.0 0.00 0.83 0.82 66 1014.6
20260903191510 88 279 8.0 14.0 0.00 0.84 0.82 66 1014.8
20260903190004 87 237 5.0 11.0 0.00 0.84 0.82 67 1014.8
20260903184508 87 267 7.0 11.0 0.00 0.84 0.82 69 1015.2
20260903183014 87 227 5.0 12.0 0.00 0.84 0.82 69 1015.1
20260903181516 86 268 6.0 11.0 0.00 0.84 0.82 70 1015.3
20260903180004 86 275 5.0 12.0 0.00 0.84 0.82 70 1015.3
20260903174503 85 236 5.0 13.0 0.00 0.84 0.82 73 1015.6
20260903173007 85 281 6.0 15.0 0.00 0.84 0.82 73 1015.9
20260903171512 85 257 5.0 15.0 0.00 0.84 0.82 73 1016.2
20260903170029 85 265 6.0 14.0 0.00 0.84 0.82 72 1016.5
20260903164503 84 239 9.0 17.0 0.00 0.84 0.82 72 1016.7
20260903163006 85 271 8.0 15.0 0.00 0.84 0.82 70 1016.7
20260903161512 85 254 4.0 10.0 0.00 0.84 0.82 72 1016.5
20260903160018 84 261 4.0 10.0 0.00 0.84 0.82 73 1016.6
20260903154523 83 275 3.0 10.0 0.00 0.84 0.82 75 1016.5
20260903153005 82 263 5.0 13.0 0.00 0.84 0.82 76 1016.5
20260903151508 81 205 6.0 15.0 0.00 0.84 0.82 77 1016.5
20260903150012 80 229 5.0 13.0 0.00 0.84 0.82 81 1016.3
20260903144516 79 201 6.0 14.0 0.00 0.84 0.82 85 1016.2
20260903143037 77 209 8.0 19.0 0.00 0.84 0.82 85 1016.0
20260903141504 77 218 9.0 17.0 0.00 0.84 0.82 87 1015.6
20260903140008 76 196 9.0 17.0 0.00 0.84 0.82 88 1015.5
20260903134521 75 209 10.0 18.0 0.00 0.84 0.82 88 1015.7
20260903133020 74 219 10.0 17.0 0.00 0.84 0.82 89 1015.8
20260903131528 74 176 6.0 12.0 0.00 0.84 0.82 90 1015.1
20260903130031 74 178 2.0 15.0 0.00 0.84 0.82 91 1015.7
20260903124514 74 232 8.0 13.0 0.00 0.84 0.82 90 1017.6
20260903123004 73 267 4.0 10.0 0.01 0.84 0.82 90 1018.3
20260903121508 73 199 3.0 11.0 0.01 0.84 0.82 91 1017.7
20260903120006 73 225 4.0 10.0 0.01 0.84 0.82 92 1017.5
20260903114503 72 206 4.0 11.0 0.01 0.84 0.82 92 1017.7
20260903113008 72 200 3.0 8.0 0.00 0.83 0.81 93 1017.7
20260903111506 72 205 3.0 7.0 0.00 0.83 0.81 93 1017.7
20260903110007 71 223 1.0 4.0 0.02 0.83 0.81 93 1017.9
20260903104510 71 238 0.0 0.0 0.18 0.83 0.81 93 1017.9
20260903103008 71 238 0.0 0.0 0.21 0.83 0.81 93 1018.0
20260903101526 71 238 0.0 4.0 0.23 0.83 0.81 93 1018.4
20260903100011 72 275 2.0 9.0 0.21 0.81 0.79 93 1018.5
20260903094508 72 242 0.0 0.0 0.08 0.65 0.63 93 1018.4
20260903093012 73 5 0.0 0.0 0.06 0.62 0.60 93 1017.6
20260903091513 73 47 0.0 0.0 0.04 0.60 0.58 93 1017.4
20260903090014 73 226 0.0 0.0 0.04 0.60 0.58 93 1017.6
20260903084525 73 89 0.0 0.0 0.04 0.57 0.55 93 1017.6
20260903083021 73 86 0.0 0.0 0.17 0.56 0.54 93 1017.3
20260903081510 73 86 0.0 0.0 0.23 0.56 0.54 93 1017.6
20260903080029 73 79 0.0 4.0 0.54 0.56 0.54 93 1017.5
20260903074517 73 90 4.0 9.0 0.51 0.52 0.51 93 1017.5
20260903073032 73 360 7.0 16.0 0.37 0.39 0.37 92 1018.1
20260903071515 73 9 8.0 18.0 0.31 0.33 0.31 91 1018.5
20260903070019 75 319 10.0 18.0 0.00 0.02 0.00 91 1018.7
20260903064516 75 352 2.0 5.0 0.00 0.02 0.00 91 1017.4
20260903063019 75 86 3.0 7.0 0.00 0.02 0.00 91 1017.0
20260903061518 75 84 0.0 5.0 0.00 0.02 0.00 91 1017.4
20260903060020 75 94 0.0 3.0 0.00 0.02 0.00 91 1017.6
20260903054516 75 94 1.0 6.0 0.00 0.02 0.00 91 1017.5
20260903053003 75 88 2.0 6.0 0.00 0.02 0.00 91 1017.4
20260903051506 75 74 1.0 5.0 0.00 0.02 0.00 91 1017.7
20260903050021 75 67 1.0 5.0 0.00 0.02 0.00 91 1018.0
20260903044518 75 92 1.0 4.0 0.00 0.02 0.00 91 1018.2
20260903043010 75 87 0.0 3.0 0.00 0.02 0.00 91 1018.3
20260903041515 75 87 0.0 3.0 0.00 0.02 0.00 91 1018.2
20260903040009 75 86 0.0 3.0 0.00 0.02 0.00 90 1018.1
20260903034510 75 81 2.0 4.0 0.00 0.02 0.02 90 1018.4
20260903033013 75 60 2.0 6.0 0.00 0.02 0.02 90 1018.5
20260903031514 75 97 3.0 9.0 0.00 0.02 0.02 90 1018.3
20260903030018 75 92 3.0 9.0 0.00 0.02 0.02 90 1018.0
20260903024511 75 103 4.0 11.0 0.00 0.02 0.02 89 1017.9
20260903023014 75 74 5.0 11.0 0.00 0.02 0.02 89 1018.2
20260903021518 75 59 1.0 10.0 0.00 0.19 0.02 89 1018.4
20260903020020 75 92 4.0 8.0 0.00 0.63 0.02 88 1018.6
20260903014519 75 88 4.0 10.0 0.00 0.63 0.02 88 1018.4
20260903013008 75 98 1.0 8.0 0.00 0.63 0.02 88 1018.5
20260903011516 75 92 4.0 10.0 0.00 0.63 0.02 88 1018.8